Other Surface Observations
Issued by NWS

Home | Current Version | Previous Version | Text Only | Print | Product List | Glossary On
Versions: 1 2 3 4 5 6 7 8 9 10 11 12 13 14 15 16 17 18 19 20 21 22 23 24 25 26 27 28 29 30 31 32 33 34 35 36 37 38 39 40 41 42 43 44 45 46 47 48 49 50
000
SXUS52 KTAE 312211
OSOTAE
OSOTAE
North Florida/South Alabama/Southwest Georgia Weather Roundup
National Weather Service Tallahassee Florida
600 PM EDT FRI JUL 31 2015

Note: "fair" indicates few or no clouds below 12,000 feet with no
significant weather and/or obstructions to visibility.

!FLZ017-115-028-034-025-312300
...North Florida...

CITY           SKY/WX    TMP DP  RH WIND       PRES   REMARKS
TALLAHASSEE    PTSUNNY   92  75  57 SW10      29.86F HX 103
APALACHICOLA   CLOUDY    87  78  74 SW6       29.86F HX 100
PERRY          MOSUNNY   87  76  68 S8        29.89S HX  97
CROSS CITY       N/A     83  77  82 SW6       29.91S HX  92
JACKSONVILLE   PTSUNNY   88  74  63 SW13      29.87F THUNDER HX  96
$$

!FLZ112-006-005-002-011-312300
...Florida Panhandle...

CITY           SKY/WX    TMP DP  RH WIND       PRES   REMARKS
MARIANNA       MOSUNNY   87  78  74 W7        29.85S HX 100
BONIFAY        TSTM      77  75  93 N7        29.89R FOG
PANAMA CITY NW FAIR      81  76  84 CALM      29.86S
TYNDALL AFB    PTSUNNY   86  78  76 S8        29.86F HX  99
TYND DRONE APT FAIR      86  79  79 S7        29.85F HX 100
DE FUNIAK SPR  HVY RAIN  77  73  88 N6G13     29.90R VSB 3/4
EGLIN AFB      PTSUNNY   87  76  69 N7        29.85F HX  98
DESTIN         PTSUNNY   89  78  70 CALM      29.86S HX 103
HURLBURT       NOT AVBL
CRESTVIEW      CLOUDY    78  78 100 SE3       29.90R
PENSACOLA      TSTM      83  74  74 NE9G21    29.88R
$$

!ALZ063-066-312300
...South Alabama...

CITY           SKY/WX    TMP DP  RH WIND       PRES   REMARKS
DOTHAN         PTSUNNY   90  74  59 NW9       29.90R HX  99
OZARK CAIRNS   PTSUNNY   87  77  72 SW3       29.86F HX  99
FT RUCKER HELI PTSUNNY   88  74  63 VRB3      29.85F HX  96
RUCKER HELI 3  FAIR      88  75  65 SW5       29.88S HX  98
RUCKER HELI 2  FAIR      87  80  79 CALM      29.86S HX 103
FLORALA APT    CLOUDY    79  72  79 S8        29.90S
ANDALUSIA      PTSUNNY   92  75  57 CALM      29.87S HX 103
TROY           SUNNY     95  72  47 N12       29.87S HX 103
EUFALA         FAIR      93  75  55 S3        29.85S HX 104
MOBILE         MOSUNNY   92  76  59 N12       29.87F HX 104
$$

!GAZ120>161-312300
...Southwest and South Central Georgia...

CITY           SKY/WX    TMP DP  RH WIND       PRES   REMARKS
THOMASVILLE    FAIR      91  73  55 SW8       29.88S HX 100
BAINBRIDGE     MOSUNNY   88  77  70 S7        29.86S HX 100
MOODY AFB      PTSUNNY   92  75  58 W9        29.86F HX 102
VALDOSTA       MOSUNNY   89  76  65 VRB3      29.87F HX 100
MOULTRIE       MOSUNNY   91  75  59 SW7       29.87S HX 102
BLAKELY        PTSUNNY   93  79  62 CALM      29.85F HX 110
ALBANY         PTSUNNY   95  74  50 NW5       29.87S HX 105
TIFTON         PTSUNNY   90  72  55 S12G21    29.86S HX  97
FITZGERALD     FAIR      93  74  54 E3        29.90R HX 103
CORDELE        LGT RAIN  85  75  72 NE25G38   29.93R HX  93
AMERICUS       MOCLDY    77  77 100 CALM      29.91R
HOMERVILLE     FAIR      82  81  94 NW3       29.89S HX  95
$$

!GMZ750-755-770-775-312300
...Coastal and Buoy Obs...

STATION/POSITION TIME  TEMP    WIND        PRES    VSBY  WAVE
                       AIR SEA DIR/SP/G                  HT/PER
                 (UTC) (F)     (DEG/KT/KT) (MB)    (MI)  (FT/S)
KEATON BEACH     2200   82     180/ 11/ 12 1012.5R
CEDAR KEY        2200   83     220/  9/ 12 1013.5F
C TOWER          2200   84     210/ 10/ 11 1011.5F
APALACHICOLA BUO 2150   83 85  220/ 10/ 12 1012.2F         3/ 5
PANAMA CITY BUOY 2150   85 87  250/ 10/ 12 1011.6F         2/ 5
MOBILE BUOY      2150   86 92  350/  6/  8 1011.2F         1/ 4
ORANGE BCH AL BU 2150   84 86  350/  4/  4 1010.4F         1/ 4
$$



USA.gov is the U.S. government's official web portal to all federal, state and local government web resources and services.